Year,Month,Day,Hour,Minute,Value (Times are PST for insolation in W/m^2)
2011,06,20,00,00,0.00
2011,06,20,00,01,0.00
2011,06,20,00,02,0.00
2011,06,20,00,03,0.00
2011,06,20,00,04,0.00
2011,06,20,00,05,0.00
2011,06,20,00,06,0.00
2011,06,20,00,07,0.00
2011,06,20,00,08,0.00
2011,06,20,00,09,0.00
2011,06,20,00,10,0.00
2011,06,20,00,11,0.00
2011,06,20,00,12,0.00
2011,06,20,00,13,0.00
2011,06,20,00,14,0.00
2011,06,20,00,15,0.00
2011,06,20,00,16,0.00
2011,06,20,00,17,0.00
2011,06,20,00,18,0.00
2011,06,20,00,19,0.00
2011,06,20,00,20,0.00
2011,06,20,00,21,0.00
2011,06,20,00,22,0.00
2011,06,20,00,23,0.00
2011,06,20,00,24,0.00
2011,06,20,00,25,0.00
2011,06,20,00,26,0.00
2011,06,20,00,27,0.00
2011,06,20,00,28,0.00
2011,06,20,00,29,0.00
2011,06,20,00,30,0.00
2011,06,20,00,31,0.00
2011,06,20,00,32,0.00
2011,06,20,00,33,0.00
2011,06,20,00,34,0.00
2011,06,20,00,35,0.00
2011,06,20,00,36,0.00
2011,06,20,00,37,0.00
2011,06,20,00,38,0.00
2011,06,20,00,39,0.00
2011,06,20,00,40,0.00
2011,06,20,00,41,0.00
2011,06,20,00,42,0.00
2011,06,20,00,43,0.00
2011,06,20,00,44,0.00
2011,06,20,00,45,0.00
2011,06,20,00,46,0.00
2011,06,20,00,47,0.00
2011,06,20,00,48,0.00
2011,06,20,00,49,0.00
2011,06,20,00,50,0.00
2011,06,20,00,51,0.00
2011,06,20,00,52,0.00
2011,06,20,00,53,0.00
2011,06,20,00,54,0.00
2011,06,20,00,55,0.00
2011,06,20,00,56,0.00
2011,06,20,00,57,0.00
2011,06,20,00,58,0.00
2011,06,20,00,59,0.00
2011,06,20,01,00,0.00
2011,06,20,01,01,0.00
2011,06,20,01,02,0.00
2011,06,20,01,03,0.00
2011,06,20,01,04,0.00
2011,06,20,01,05,0.00
2011,06,20,01,06,0.00
2011,06,20,01,07,0.00
2011,06,20,01,08,0.00
2011,06,20,01,09,0.00
2011,06,20,01,10,0.00
2011,06,20,01,11,0.00
2011,06,20,01,12,0.00
2011,06,20,01,13,0.00
2011,06,20,01,14,0.00
2011,06,20,01,15,0.00
2011,06,20,01,16,0.00
2011,06,20,01,17,0.00
2011,06,20,01,18,0.00
2011,06,20,01,19,0.00
2011,06,20,01,20,0.00
2011,06,20,01,21,0.00
2011,06,20,01,22,0.00
2011,06,20,01,23,0.00
2011,06,20,01,24,0.00
2011,06,20,01,25,0.00
2011,06,20,01,26,0.00
2011,06,20,01,27,0.00
2011,06,20,01,28,0.00
2011,06,20,01,29,0.00
2011,06,20,01,30,0.00
2011,06,20,01,31,0.00
2011,06,20,01,32,0.00
2011,06,20,01,33,0.00
2011,06,20,01,34,0.00
2011,06,20,01,35,0.00
2011,06,20,01,36,0.00
2011,06,20,01,37,0.00
2011,06,20,01,38,0.00
2011,06,20,01,39,0.00
2011,06,20,01,40,0.00
2011,06,20,01,41,0.00
2011,06,20,01,42,0.00
2011,06,20,01,43,0.00
2011,06,20,01,44,0.00
2011,06,20,01,45,0.00
2011,06,20,01,46,0.00
2011,06,20,01,47,0.00
2011,06,20,01,48,0.00
2011,06,20,01,49,0.00
2011,06,20,01,50,0.00
2011,06,20,01,51,0.00
2011,06,20,01,52,0.00
2011,06,20,01,53,0.00
2011,06,20,01,54,0.00
2011,06,20,01,55,0.00
2011,06,20,01,56,0.00
2011,06,20,01,57,0.00
2011,06,20,01,58,0.00
2011,06,20,01,59,0.00
2011,06,20,02,00,0.00
2011,06,20,02,01,0.00
2011,06,20,02,02,0.00
2011,06,20,02,03,0.00
2011,06,20,02,04,0.00
2011,06,20,02,05,0.00
2011,06,20,02,06,0.00
2011,06,20,02,07,0.00
2011,06,20,02,08,0.00
2011,06,20,02,09,0.00
2011,06,20,02,10,0.00
2011,06,20,02,11,0.00
2011,06,20,02,12,0.00
2011,06,20,02,13,0.00
2011,06,20,02,14,0.00
2011,06,20,02,15,0.00
2011,06,20,02,16,0.00
2011,06,20,02,17,0.00
2011,06,20,02,18,0.00
2011,06,20,02,19,0.00
2011,06,20,02,20,0.00
2011,06,20,02,21,0.00
2011,06,20,02,22,0.00
2011,06,20,02,23,0.00
2011,06,20,02,24,0.00
2011,06,20,02,25,0.00
2011,06,20,02,26,0.00
2011,06,20,02,27,0.00
2011,06,20,02,28,0.00
2011,06,20,02,29,0.00
2011,06,20,02,30,0.00
2011,06,20,02,31,0.00
2011,06,20,02,32,0.00
2011,06,20,02,33,0.00
2011,06,20,02,34,0.00
2011,06,20,02,35,0.00
2011,06,20,02,36,0.00
2011,06,20,02,37,0.00
2011,06,20,02,38,0.00
2011,06,20,02,39,0.00
2011,06,20,02,40,0.00
2011,06,20,02,41,0.00
2011,06,20,02,42,0.00
2011,06,20,02,43,0.00
2011,06,20,02,44,0.00
2011,06,20,02,45,0.00
2011,06,20,02,46,0.00
2011,06,20,02,47,0.00
2011,06,20,02,48,0.00
2011,06,20,02,49,0.00
2011,06,20,02,50,0.00
2011,06,20,02,51,0.00
2011,06,20,02,52,0.00
2011,06,20,02,53,0.00
2011,06,20,02,54,0.00
2011,06,20,02,55,0.00
2011,06,20,02,56,0.00
2011,06,20,02,57,0.00
2011,06,20,02,58,0.00
2011,06,20,02,59,0.00
2011,06,20,03,00,0.00
2011,06,20,03,01,0.00
2011,06,20,03,02,0.00
2011,06,20,03,03,0.00
2011,06,20,03,04,0.00
2011,06,20,03,05,0.00
2011,06,20,03,06,0.00
2011,06,20,03,07,0.00
2011,06,20,03,08,0.00
2011,06,20,03,09,0.00
2011,06,20,03,10,0.00
2011,06,20,03,11,0.00
2011,06,20,03,12,0.00
2011,06,20,03,13,0.00
2011,06,20,03,14,0.00
2011,06,20,03,15,0.00
2011,06,20,03,16,0.00
2011,06,20,03,17,0.00
2011,06,20,03,18,0.00
2011,06,20,03,19,0.00
2011,06,20,03,20,0.00
2011,06,20,03,21,0.00
2011,06,20,03,22,0.00
2011,06,20,03,23,0.00
2011,06,20,03,24,0.00
2011,06,20,03,25,0.00
2011,06,20,03,26,0.00
2011,06,20,03,27,0.00
2011,06,20,03,28,0.00
2011,06,20,03,29,0.00
2011,06,20,03,30,0.00
2011,06,20,03,31,0.00
2011,06,20,03,32,0.00
2011,06,20,03,33,0.00
2011,06,20,03,34,0.00
2011,06,20,03,35,0.00
2011,06,20,03,36,0.00
2011,06,20,03,37,0.00
2011,06,20,03,38,0.00
2011,06,20,03,39,0.00
2011,06,20,03,40,0.00
2011,06,20,03,41,0.00
2011,06,20,03,42,0.00
2011,06,20,03,43,0.00
2011,06,20,03,44,0.00
2011,06,20,03,45,0.00
2011,06,20,03,46,0.00
2011,06,20,03,47,0.00
2011,06,20,03,48,0.00
2011,06,20,03,49,0.00
2011,06,20,03,50,0.00
2011,06,20,03,51,0.00
2011,06,20,03,52,0.00
2011,06,20,03,53,0.00
2011,06,20,03,54,0.00
2011,06,20,03,55,0.00
2011,06,20,03,56,0.00
2011,06,20,03,57,0.00
2011,06,20,03,58,0.00
2011,06,20,03,59,0.00
2011,06,20,04,00,0.00
2011,06,20,04,01,0.00
2011,06,20,04,02,0.00
2011,06,20,04,03,0.00
2011,06,20,04,04,0.00
2011,06,20,04,05,0.00
2011,06,20,04,06,0.00
2011,06,20,04,07,0.00
2011,06,20,04,08,0.00
2011,06,20,04,09,0.00
2011,06,20,04,10,0.00
2011,06,20,04,11,0.00
2011,06,20,04,12,0.00
2011,06,20,04,13,0.00
2011,06,20,04,14,0.00
2011,06,20,04,15,0.00
2011,06,20,04,16,0.00
2011,06,20,04,17,0.00
2011,06,20,04,18,0.00
2011,06,20,04,19,0.00
2011,06,20,04,20,0.00
2011,06,20,04,21,0.00
2011,06,20,04,22,0.00
2011,06,20,04,23,0.00
2011,06,20,04,24,0.00
2011,06,20,04,25,0.00
2011,06,20,04,26,0.00
2011,06,20,04,27,0.00
2011,06,20,04,28,0.00
2011,06,20,04,29,0.00
2011,06,20,04,30,0.00
2011,06,20,04,31,0.00
2011,06,20,04,32,0.00
2011,06,20,04,33,0.00
2011,06,20,04,34,0.00
2011,06,20,04,35,0.00
2011,06,20,04,36,0.00
2011,06,20,04,37,0.00
2011,06,20,04,38,0.00
2011,06,20,04,39,0.00
2011,06,20,04,40,0.00
2011,06,20,04,41,0.00
2011,06,20,04,42,0.00
2011,06,20,04,43,0.00
2011,06,20,04,44,0.00
2011,06,20,04,45,0.00
2011,06,20,04,46,0.00
2011,06,20,04,47,0.00
2011,06,20,04,48,0.00
2011,06,20,04,49,0.00
2011,06,20,04,50,0.00
2011,06,20,04,51,0.00
2011,06,20,04,52,0.00
2011,06,20,04,53,0.00
2011,06,20,04,54,0.00
2011,06,20,04,55,0.00
2011,06,20,04,56,0.00
2011,06,20,04,57,0.00
2011,06,20,04,58,0.00
2011,06,20,04,59,0.00
2011,06,20,05,00,0.00
2011,06,20,05,01,0.00
2011,06,20,05,02,0.00
2011,06,20,05,03,0.00
2011,06,20,05,04,0.00
2011,06,20,05,05,0.00
2011,06,20,05,06,0.00
2011,06,20,05,07,0.00
2011,06,20,05,08,0.00
2011,06,20,05,09,0.00
2011,06,20,05,10,0.00
2011,06,20,05,11,0.00
2011,06,20,05,12,0.00
2011,06,20,05,13,0.00
2011,06,20,05,14,0.00
2011,06,20,05,15,0.00
2011,06,20,05,16,0.00
2011,06,20,05,17,0.00
2011,06,20,05,18,0.00
2011,06,20,05,19,0.00
2011,06,20,05,20,0.00
2011,06,20,05,21,0.00
2011,06,20,05,22,0.00
2011,06,20,05,23,4.80
2011,06,20,05,24,5.00
2011,06,20,05,25,5.00
2011,06,20,05,26,5.00
2011,06,20,05,27,5.00
2011,06,20,05,28,5.00
2011,06,20,05,29,5.80
2011,06,20,05,30,7.00
2011,06,20,05,31,7.00
2011,06,20,05,32,7.00
2011,06,20,05,33,7.00
2011,06,20,05,34,7.00
2011,06,20,05,35,8.50
2011,06,20,05,36,9.00
2011,06,20,05,37,9.00
2011,06,20,05,38,9.00
2011,06,20,05,39,9.00
2011,06,20,05,40,9.30
2011,06,20,05,41,11.00
2011,06,20,05,42,11.00
2011,06,20,05,43,11.00
2011,06,20,05,44,11.00
2011,06,20,05,45,11.50
2011,06,20,05,46,12.00
2011,06,20,05,47,12.00
2011,06,20,05,48,12.00
2011,06,20,05,49,12.00
2011,06,20,05,50,13.50
2011,06,20,05,51,14.00
2011,06,20,05,52,14.00
2011,06,20,05,53,14.00
2011,06,20,05,54,14.00
2011,06,20,05,55,14.00
2011,06,20,05,56,14.00
2011,06,20,05,57,14.60
2011,06,20,05,58,16.00
2011,06,20,05,59,16.80
2011,06,20,06,00,18.50
2011,06,20,06,01,19.00
2011,06,20,06,02,20.20
2011,06,20,06,03,21.00
2011,06,20,06,04,22.40
2011,06,20,06,05,23.00
2011,06,20,06,06,24.60
2011,06,20,06,07,25.00
2011,06,20,06,08,26.00
2011,06,20,06,09,26.20
2011,06,20,06,10,28.00
2011,06,20,06,11,28.00
2011,06,20,06,12,28.00
2011,06,20,06,13,28.70
2011,06,20,06,14,30.00
2011,06,20,06,15,30.90
2011,06,20,06,16,32.50
2011,06,20,06,17,33.00
2011,06,20,06,18,33.00
2011,06,20,06,19,34.40
2011,06,20,06,20,35.00
2011,06,20,06,21,35.00
2011,06,20,06,22,36.80
2011,06,20,06,23,37.00
2011,06,20,06,24,37.20
2011,06,20,06,25,39.00
2011,06,20,06,26,39.20
2011,06,20,06,27,40.50
2011,06,20,06,28,42.00
2011,06,20,06,29,42.80
2011,06,20,06,30,44.00
2011,06,20,06,31,45.00
2011,06,20,06,32,46.00
2011,06,20,06,33,46.00
2011,06,20,06,34,46.70
2011,06,20,06,35,47.00
2011,06,20,06,36,47.00
2011,06,20,06,37,48.80
2011,06,20,06,38,50.90
2011,06,20,06,39,53.00
2011,06,20,06,40,53.10
2011,06,20,06,41,54.40
2011,06,20,06,42,56.00
2011,06,20,06,43,56.00
2011,06,20,06,44,56.80
2011,06,20,06,45,58.00
2011,06,20,06,46,58.00
2011,06,20,06,47,59.20
2011,06,20,06,48,60.00
2011,06,20,06,49,60.00
2011,06,20,06,50,60.00
2011,06,20,06,51,61.70
2011,06,20,06,52,62.00
2011,06,20,06,53,62.00
2011,06,20,06,54,63.00
2011,06,20,06,55,63.30
2011,06,20,06,56,65.00
2011,06,20,06,57,65.00
2011,06,20,06,58,64.30
2011,06,20,06,59,63.00
2011,06,20,07,00,63.00
2011,06,20,07,01,63.00
2011,06,20,07,02,65.30
2011,06,20,07,03,68.30
2011,06,20,07,04,69.70
2011,06,20,07,05,71.50
2011,06,20,07,06,73.60
2011,06,20,07,07,75.80
2011,06,20,07,08,77.00
2011,06,20,07,09,79.20
2011,06,20,07,10,81.30
2011,06,20,07,11,83.20
2011,06,20,07,12,84.00
2011,06,20,07,13,84.00
2011,06,20,07,14,84.00
2011,06,20,07,15,85.00
2011,06,20,07,16,86.00
2011,06,20,07,17,84.80
2011,06,20,07,18,84.00
2011,06,20,07,19,84.00
2011,06,20,07,20,84.00
2011,06,20,07,21,85.70
2011,06,20,07,22,87.80
2011,06,20,07,23,90.00
2011,06,20,07,24,91.20
2011,06,20,07,25,93.30
2011,06,20,07,26,95.00
2011,06,20,07,27,95.60
2011,06,20,07,28,97.30
2011,06,20,07,29,98.80
2011,06,20,07,30,100.00
2011,06,20,07,31,100.00
2011,06,20,07,32,100.00
2011,06,20,07,33,100.00
2011,06,20,07,34,100.00
2011,06,20,07,35,101.60
2011,06,20,07,36,104.50
2011,06,20,07,37,106.80
2011,06,20,07,38,110.90
2011,06,20,07,39,113.10
2011,06,20,07,40,114.30
2011,06,20,07,41,116.50
2011,06,20,07,42,118.00
2011,06,20,07,43,118.00
2011,06,20,07,44,118.00
2011,06,20,07,45,118.00
2011,06,20,07,46,117.00
2011,06,20,07,47,114.90
2011,06,20,07,48,112.10
2011,06,20,07,49,108.10
2011,06,20,07,50,105.50
2011,06,20,07,51,104.10
2011,06,20,07,52,104.00
2011,06,20,07,53,102.20
2011,06,20,07,54,104.10
2011,06,20,07,55,105.60
2011,06,20,07,56,109.50
2011,06,20,07,57,111.90
2011,06,20,07,58,115.30
2011,06,20,07,59,118.00
2011,06,20,08,00,118.00
2011,06,20,08,01,118.00
2011,06,20,08,02,118.00
2011,06,20,08,03,116.70
2011,06,20,08,04,116.00
2011,06,20,08,05,117.50
2011,06,20,08,06,120.60
2011,06,20,08,07,124.60
2011,06,20,08,08,127.00
2011,06,20,08,09,128.20
2011,06,20,08,10,130.30
2011,06,20,08,11,132.50
2011,06,20,08,12,134.90
2011,06,20,08,13,138.30
2011,06,20,08,14,142.20
2011,06,20,08,15,145.00
2011,06,20,08,16,147.00
2011,06,20,08,17,148.60
2011,06,20,08,18,150.30
2011,06,20,08,19,152.40
2011,06,20,08,20,154.50
2011,06,20,08,21,157.60
2011,06,20,08,22,161.60
2011,06,20,08,23,165.00
2011,06,20,08,24,167.20
2011,06,20,08,25,169.00
2011,06,20,08,26,169.00
2011,06,20,08,27,169.00
2011,06,20,08,28,169.70
2011,06,20,08,29,171.40
2011,06,20,08,30,174.90
2011,06,20,08,31,179.60
2011,06,20,08,32,181.00
2011,06,20,08,33,187.00
2011,06,20,08,34,192.10
2011,06,20,08,35,196.10
2011,06,20,08,36,198.70
2011,06,20,08,37,201.70
2011,06,20,08,38,204.10
2011,06,20,08,39,209.50
2011,06,20,08,40,214.90
2011,06,20,08,41,221.10
2011,06,20,08,42,226.40
2011,06,20,08,43,230.70
2011,06,20,08,44,232.80
2011,06,20,08,45,235.40
2011,06,20,08,46,238.00
2011,06,20,08,47,242.00
2011,06,20,08,48,248.00
2011,06,20,08,49,255.00
2011,06,20,08,50,260.90
2011,06,20,08,51,266.30
2011,06,20,08,52,271.50
2011,06,20,08,53,277.90
2011,06,20,08,54,281.40
2011,06,20,08,55,285.40
2011,06,20,08,56,288.90
2011,06,20,08,57,290.90
2011,06,20,08,58,286.30
2011,06,20,08,59,282.20
2011,06,20,09,00,281.00
2011,06,20,09,01,281.00
2011,06,20,09,02,281.00
2011,06,20,09,03,285.00
2011,06,20,09,04,285.60
2011,06,20,09,05,285.00
2011,06,20,09,06,287.60
2011,06,20,09,07,291.60
2011,06,20,09,08,295.00
2011,06,20,09,09,299.00
2011,06,20,09,10,299.00
2011,06,20,09,11,299.60
2011,06,20,09,12,301.20
2011,06,20,09,13,299.70
2011,06,20,09,14,301.40
2011,06,20,09,15,303.00
2011,06,20,09,16,303.00
2011,06,20,09,17,301.40
2011,06,20,09,18,298.30
2011,06,20,09,19,295.60
2011,06,20,09,20,295.00
2011,06,20,09,21,301.00
2011,06,20,09,22,308.30
2011,06,20,09,23,309.30
2011,06,20,09,24,315.80
2011,06,20,09,25,324.90
2011,06,20,09,26,338.70
2011,06,20,09,27,356.00
2011,06,20,09,28,375.30
2011,06,20,09,29,372.80
2011,06,20,09,30,365.80
2011,06,20,09,31,359.50
2011,06,20,09,32,355.50
2011,06,20,09,33,352.30
2011,06,20,09,34,350.60
2011,06,20,09,35,344.60
2011,06,20,09,36,341.30
2011,06,20,09,37,349.10
2011,06,20,09,38,330.50
2011,06,20,09,39,319.60
2011,06,20,09,40,314.50
2011,06,20,09,41,307.00
2011,06,20,09,42,302.00
2011,06,20,09,43,295.30
2011,06,20,09,44,292.00
2011,06,20,09,45,293.40
2011,06,20,09,46,298.70
2011,06,20,09,47,305.50
2011,06,20,09,48,312.70
2011,06,20,09,49,320.10
2011,06,20,09,50,327.70
2011,06,20,09,51,329.90
2011,06,20,09,52,331.80
2011,06,20,09,53,330.30
2011,06,20,09,54,333.60
2011,06,20,09,55,329.30
2011,06,20,09,56,323.90
2011,06,20,09,57,319.40
2011,06,20,09,58,317.30
2011,06,20,09,59,314.80
2011,06,20,10,00,309.70
2011,06,20,10,01,301.10
2011,06,20,10,02,291.40
2011,06,20,10,03,282.00
2011,06,20,10,04,271.90
2011,06,20,10,05,262.00
2011,06,20,10,06,254.00
2011,06,20,10,07,248.50
2011,06,20,10,08,247.70
2011,06,20,10,09,240.80
2011,06,20,10,10,239.00
2011,06,20,10,11,239.00
2011,06,20,10,12,239.60
2011,06,20,10,13,241.70
2011,06,20,10,14,243.40
2011,06,20,10,15,244.00
2011,06,20,10,16,241.40
2011,06,20,10,17,237.20
2011,06,20,10,18,234.70
2011,06,20,10,19,234.00
2011,06,20,10,20,236.30
2011,06,20,10,21,237.00
2011,06,20,10,22,243.40
2011,06,20,10,23,246.30
2011,06,20,10,24,253.50
2011,06,20,10,25,258.40
2011,06,20,10,26,260.00
2011,06,20,10,27,260.00
2011,06,20,10,28,259.30
2011,06,20,10,29,257.60
2011,06,20,10,30,256.00
2011,06,20,10,31,255.00
2011,06,20,10,32,256.20
2011,06,20,10,33,260.30
2011,06,20,10,34,265.60
2011,06,20,10,35,272.40
2011,06,20,10,36,277.40
2011,06,20,10,37,278.00
2011,06,20,10,38,268.70
2011,06,20,10,39,251.90
2011,06,20,10,40,240.10
2011,06,20,10,41,234.30
2011,06,20,10,42,227.30
2011,06,20,10,43,221.90
2011,06,20,10,44,219.10
2011,06,20,10,45,219.40
2011,06,20,10,46,224.30
2011,06,20,10,47,231.30
2011,06,20,10,48,238.70
2011,06,20,10,49,244.60
2011,06,20,10,50,249.20
2011,06,20,10,51,250.90
2011,06,20,10,52,250.10
2011,06,20,10,53,245.90
2011,06,20,10,54,242.60
2011,06,20,10,55,238.60
2011,06,20,10,56,235.50
2011,06,20,10,57,234.60
2011,06,20,10,58,237.80
2011,06,20,10,59,243.10
2011,06,20,11,00,250.30
2011,06,20,11,01,257.60
2011,06,20,11,02,262.40
2011,06,20,11,03,264.70
2011,06,20,11,04,265.00
2011,06,20,11,05,265.00
2011,06,20,11,06,266.70
2011,06,20,11,07,270.60
2011,06,20,11,08,278.20
2011,06,20,11,09,283.70
2011,06,20,11,10,290.90
2011,06,20,11,11,296.00
2011,06,20,11,12,299.60
2011,06,20,11,13,300.30
2011,06,20,11,14,298.10
2011,06,20,11,15,295.60
2011,06,20,11,16,292.90
2011,06,20,11,17,292.00
2011,06,20,11,18,293.30
2011,06,20,11,19,296.10
2011,06,20,11,20,297.00
2011,06,20,11,21,297.00
2011,06,20,11,22,297.00
2011,06,20,11,23,297.20
2011,06,20,11,24,301.30
2011,06,20,11,25,304.70
2011,06,20,11,26,309.90
2011,06,20,11,27,319.10
2011,06,20,11,28,332.10
2011,06,20,11,29,347.90
2011,06,20,11,30,357.00
2011,06,20,11,31,362.50
2011,06,20,11,32,363.90
2011,06,20,11,33,356.00
2011,06,20,11,34,349.40
2011,06,20,11,35,342.30
2011,06,20,11,36,338.40
2011,06,20,11,37,340.70
2011,06,20,11,38,346.40
2011,06,20,11,39,355.90
2011,06,20,11,40,365.00
2011,06,20,11,41,372.10
2011,06,20,11,42,376.60
2011,06,20,11,43,379.10
2011,06,20,11,44,382.70
2011,06,20,11,45,385.00
2011,06,20,11,46,393.70
2011,06,20,11,47,395.40
2011,06,20,11,48,390.70
2011,06,20,11,49,388.50
2011,06,20,11,50,381.50
2011,06,20,11,51,364.60
2011,06,20,11,52,352.90
2011,06,20,11,53,352.30
2011,06,20,11,54,360.00
2011,06,20,11,55,370.30
2011,06,20,11,56,379.80
2011,06,20,11,57,400.00
2011,06,20,11,58,429.50
2011,06,20,11,59,443.00
2011,06,20,12,00,431.90
2011,06,20,12,01,424.50
2011,06,20,12,02,429.30
2011,06,20,12,03,431.30
2011,06,20,12,04,416.50
2011,06,20,12,05,407.00
2011,06,20,12,06,409.40
2011,06,20,12,07,423.60
2011,06,20,12,08,450.70
2011,06,20,12,09,490.00
2011,06,20,12,10,528.20
2011,06,20,12,11,700.00
2011,06,20,12,12,664.30
2011,06,20,12,13,565.20
2011,06,20,12,14,558.70
2011,06,20,12,15,557.30
2011,06,20,12,16,540.00
2011,06,20,12,17,618.00
2011,06,20,12,18,666.00
2011,06,20,12,19,514.00
2011,06,20,12,20,442.40
2011,06,20,12,21,446.70
2011,06,20,12,22,470.70
2011,06,20,12,23,536.00
2011,06,20,12,24,573.00
2011,06,20,12,25,568.00
2011,06,20,12,26,649.30
2011,06,20,12,27,708.00
2011,06,20,12,28,616.70
2011,06,20,12,29,482.70
2011,06,20,12,30,517.00
2011,06,20,12,31,517.00
2011,06,20,12,32,787.50
2011,06,20,12,33,890.60
2011,06,20,12,34,835.90
2011,06,20,12,35,828.00
2011,06,20,12,36,557.10
2011,06,20,12,37,512.00
2011,06,20,12,38,515.80
2011,06,20,12,39,594.60
2011,06,20,12,40,630.10
2011,06,20,12,41,680.00
2011,06,20,12,42,680.00
2011,06,20,12,43,683.40
2011,06,20,12,44,677.90
2011,06,20,12,45,621.50
2011,06,20,12,46,572.00
2011,06,20,12,47,611.80
2011,06,20,12,48,640.00
2011,06,20,12,49,768.00
2011,06,20,12,50,795.80
2011,06,20,12,51,791.00
2011,06,20,12,52,791.00
2011,06,20,12,53,778.60
2011,06,20,12,54,529.70
2011,06,20,12,55,518.60
2011,06,20,12,56,536.50
2011,06,20,12,57,565.20
2011,06,20,12,58,557.30
2011,06,20,12,59,570.00
2011,06,20,13,00,582.00
2011,06,20,13,01,601.10
2011,06,20,13,02,620.10
2011,06,20,13,03,620.00
2011,06,20,13,04,611.00
2011,06,20,13,05,599.90
2011,06,20,13,06,592.80
2011,06,20,13,07,617.70
2011,06,20,13,08,604.40
2011,06,20,13,09,633.90
2011,06,20,13,10,636.20
2011,06,20,13,11,607.90
2011,06,20,13,12,601.00
2011,06,20,13,13,601.00
2011,06,20,13,14,608.70
2011,06,20,13,15,640.40
2011,06,20,13,16,672.70
2011,06,20,13,17,680.00
2011,06,20,13,18,680.00
2011,06,20,13,19,680.00
2011,06,20,13,20,677.60
2011,06,20,13,21,659.90
2011,06,20,13,22,724.30
2011,06,20,13,23,645.50
2011,06,20,13,24,616.80
2011,06,20,13,25,633.00
2011,06,20,13,26,668.30
2011,06,20,13,27,698.30
2011,06,20,13,28,653.20
2011,06,20,13,29,668.70
2011,06,20,13,30,703.00
2011,06,20,13,31,739.50
2011,06,20,13,32,723.00
2011,06,20,13,33,634.70
2011,06,20,13,34,653.00
2011,06,20,13,35,671.00
2011,06,20,13,36,671.00
2011,06,20,13,37,671.00
2011,06,20,13,38,671.00
2011,06,20,13,39,671.00
2011,06,20,13,40,661.50
2011,06,20,13,41,619.00
2011,06,20,13,42,796.10
2011,06,20,13,43,1239.00
2011,06,20,13,44,1239.00
2011,06,20,13,45,1239.00
2011,06,20,13,46,1239.00
2011,06,20,13,47,1239.00
2011,06,20,13,48,1239.00
2011,06,20,13,49,1239.00
2011,06,20,13,50,641.60
2011,06,20,13,51,481.30
2011,06,20,13,52,478.00
2011,06,20,13,53,566.70
2011,06,20,13,54,545.20
2011,06,20,13,55,578.00
2011,06,20,13,56,590.10
2011,06,20,13,57,611.20
2011,06,20,13,58,554.30
2011,06,20,13,59,512.40
2011,06,20,14,00,489.90
2011,06,20,14,01,476.00
2011,06,20,14,02,466.70
2011,06,20,14,03,462.00
2011,06,20,14,04,463.30
2011,06,20,14,05,512.60
2011,06,20,14,06,476.50
2011,06,20,14,07,447.10
2011,06,20,14,08,435.90
2011,06,20,14,09,434.90
2011,06,20,14,10,447.50
2011,06,20,14,11,485.40
2011,06,20,14,12,541.00
2011,06,20,14,13,589.70
2011,06,20,14,14,643.30
2011,06,20,14,15,627.20
2011,06,20,14,16,611.80
2011,06,20,14,17,544.70
2011,06,20,14,18,506.20
2011,06,20,14,19,481.00
2011,06,20,14,20,463.90
2011,06,20,14,21,443.70
2011,06,20,14,22,436.20
2011,06,20,14,23,407.30
2011,06,20,14,24,393.00
2011,06,20,14,25,382.10
2011,06,20,14,26,377.50
2011,06,20,14,27,377.30
2011,06,20,14,28,382.70
2011,06,20,14,29,392.10
2011,06,20,14,30,408.00
2011,06,20,14,31,429.50
2011,06,20,14,32,476.10
2011,06,20,14,33,497.00
2011,06,20,14,34,511.30
2011,06,20,14,35,517.00
2011,06,20,14,36,569.30
2011,06,20,14,37,611.60
2011,06,20,14,38,623.40
2011,06,20,14,39,786.00
2011,06,20,14,40,772.90
2011,06,20,14,41,835.40
2011,06,20,14,42,779.00
2011,06,20,14,43,715.70
2011,06,20,14,44,587.40
2011,06,20,14,45,561.50
2011,06,20,14,46,540.70
2011,06,20,14,47,504.10
2011,06,20,14,48,468.00
2011,06,20,14,49,443.20
2011,06,20,14,50,427.50
2011,06,20,14,51,422.40
2011,06,20,14,52,437.20
2011,06,20,14,53,438.00
2011,06,20,14,54,438.00
2011,06,20,14,55,438.20
2011,06,20,14,56,436.10
2011,06,20,14,57,425.60
2011,06,20,14,58,421.30
2011,06,20,14,59,420.90
2011,06,20,15,00,415.30
2011,06,20,15,01,399.30
2011,06,20,15,02,374.70
2011,06,20,15,03,347.30
2011,06,20,15,04,323.70
2011,06,20,15,05,302.60
2011,06,20,15,06,285.20
2011,06,20,15,07,274.40
2011,06,20,15,08,269.00
2011,06,20,15,09,269.70
2011,06,20,15,10,275.70
2011,06,20,15,11,285.60
2011,06,20,15,12,295.60
2011,06,20,15,13,298.20
2011,06,20,15,14,296.10
2011,06,20,15,15,291.00
2011,06,20,15,16,281.90
2011,06,20,15,17,271.20
2011,06,20,15,18,260.90
2011,06,20,15,19,252.70
2011,06,20,15,20,247.00
2011,06,20,15,21,238.20
2011,06,20,15,22,230.30
2011,06,20,15,23,219.40
2011,06,20,15,24,205.60
2011,06,20,15,25,194.90
2011,06,20,15,26,184.30
2011,06,20,15,27,177.40
2011,06,20,15,28,173.20
2011,06,20,15,29,172.00
2011,06,20,15,30,174.00
2011,06,20,15,31,178.90
2011,06,20,15,32,185.30
2011,06,20,15,33,192.80
2011,06,20,15,34,200.30
2011,06,20,15,35,207.70
2011,06,20,15,36,216.80
2011,06,20,15,37,228.50
2011,06,20,15,38,239.60
2011,06,20,15,39,253.20
2011,06,20,15,40,270.00
2011,06,20,15,41,287.50
2011,06,20,15,42,302.00
2011,06,20,15,43,302.00
2011,06,20,15,44,321.70
2011,06,20,15,45,351.50
2011,06,20,15,46,355.00
2011,06,20,15,47,348.60
2011,06,20,15,48,338.60
2011,06,20,15,49,329.10
2011,06,20,15,50,319.70
2011,06,20,15,51,316.30
2011,06,20,15,52,329.30
2011,06,20,15,53,344.50
2011,06,20,15,54,358.40
2011,06,20,15,55,352.30
2011,06,20,15,56,338.00
2011,06,20,15,57,325.30
2011,06,20,15,58,311.40
2011,06,20,15,59,299.70
2011,06,20,16,00,291.00
2011,06,20,16,01,288.00
2011,06,20,16,02,287.40
2011,06,20,16,03,285.60
2011,06,20,16,04,283.50
2011,06,20,16,05,281.40
2011,06,20,16,06,281.00
2011,06,20,16,07,282.90
2011,06,20,16,08,285.10
2011,06,20,16,09,287.10
2011,06,20,16,10,288.80
2011,06,20,16,11,293.70
2011,06,20,16,12,300.60
2011,06,20,16,13,305.90
2011,06,20,16,14,310.70
2011,06,20,16,15,313.00
2011,06,20,16,16,311.90
2011,06,20,16,17,309.10
2011,06,20,16,18,303.90
2011,06,20,16,19,296.70
2011,06,20,16,20,289.30
2011,06,20,16,21,283.50
2011,06,20,16,22,279.20
2011,06,20,16,23,273.70
2011,06,20,16,24,270.10
2011,06,20,16,25,264.80
2011,06,20,16,26,262.90
2011,06,20,16,27,258.30
2011,06,20,16,28,253.10
2011,06,20,16,29,247.30
2011,06,20,16,30,244.00
2011,06,20,16,31,236.00
2011,06,20,16,32,225.50
2011,06,20,16,33,218.00
2011,06,20,16,34,210.70
2011,06,20,16,35,203.30
2011,06,20,16,36,199.40
2011,06,20,16,37,200.00
2011,06,20,16,38,204.40
2011,06,20,16,39,214.40
2011,06,20,16,40,223.00
2011,06,20,16,41,226.80
2011,06,20,16,42,239.60
2011,06,20,16,43,241.00
2011,06,20,16,44,241.00
2011,06,20,16,45,241.00
2011,06,20,16,46,241.00
2011,06,20,16,47,242.20
2011,06,20,16,48,245.00
2011,06,20,16,49,249.00
2011,06,20,16,50,250.00
2011,06,20,16,51,248.30
2011,06,20,16,52,243.20
2011,06,20,16,53,233.60
2011,06,20,16,54,224.00
2011,06,20,16,55,217.00
2011,06,20,16,56,211.60
2011,06,20,16,57,206.70
2011,06,20,16,58,204.50
2011,06,20,16,59,200.70
2011,06,20,17,00,197.00
2011,06,20,17,01,193.30
2011,06,20,17,02,188.20
2011,06,20,17,03,182.40
2011,06,20,17,04,178.70
2011,06,20,17,05,174.70
2011,06,20,17,06,171.30
2011,06,20,17,07,167.20
2011,06,20,17,08,162.90